Meath Environmental Platform

Observations for Trim Patrick St

Time AQI Temp °C Hum % Pres Pa CO μg/m³ H₂S μg/m³ NO μg/m³ NO₂ μg/m³ O₃ μg/m³ SO₂ μg/m³ PM1 μg/m³ PM2.5 μg/m³ PM10 μg/m³
Wednesday 5 August 2026
05:05 2 15.3 75 38,460 0.19 0 2.74 7.88 42.59 0 2 6.25 6.88
05:04 2 15.3 75 38,460 0.18 0 2.66 10.65 59.05 0 3.71 6.96 7.66
05:03 2 15.3 75 38,460 0.17 0 2.71 8.26 41.62 0 2.86 6.28 6.91
05:02 2 15.3 75 38,460 0.17 0 2.66 9.7 56.85 0 2.86 6.98 7.68
05:01 2 15.3 75 38,460 0.17 0 2.72 7.36 42.18 0 2 6.26 6.88
05:00 2 15.3 75 38,460 0.16 0 2.74 7.99 53.2 0 2.86 6.98 7.67
04:59 2 15.3 75 38,460 0.16 0 2.74 8.2 46.26 0 2.86 6.24 6.87
04:58 2 15.3 75 38,460 0.16 0 2.79 8.6 45.22 0 2 4.84 5.33
04:57 2 15.3 75 38,460 0.15 0 2.76 9.73 57.95 0 2.86 5.54 6.09
04:56 2 15.3 75 38,460 0.15 0 2.77 8.78 52.69 0 2.86 5.55 6.11
04:55 2 15.3 75 38,460 0.14 0 2.75 8.31 45.15 0 2 4.84 5.32
04:54 2 15.3 75 38,460 0.15 0 2.61 9.57 47.57 0 2.86 5.53 6.08
04:53 2 15.3 75 38,460 0.14 0 2.68 10.98 61.31 0 2.86 5.54 6.09
04:52 2 15.3 75 38,460 0.15 0 2.6 9.76 53.43 0 2 4.81 5.29
04:51 2 15.3 75 38,460 0.15 0 2.63 9.9 56.86 0 2 4.84 5.32
04:50 2 15.3 75 38,460 0.17 0 2.55 8.67 49.12 0 2 4.82 5.3
04:49 2 15.3 75 38,460 0.17 0 2.59 10.64 60.47 0 2 5.54 6.09
04:48 2 15.3 75 38,460 0.17 0 2.63 9.5 51.14 0 2 5.57 6.12
04:47 2 15.3 75 38,460 0.17 0 2.59 10.08 52.58 0 2.86 6.97 7.66
04:46 2 15.3 75 38,460 0.18 0 2.57 10.3 52.77 0 2 6.95 7.64